STARLINK-32284, 61005

Orbit data source: Space-Track

STARLINK-32284, 61005 is a payload satellite owned by SpaceX/Seattle (US) in LEO that was launched on Thu, 05 Sep 2024 UTC via an FALCON 9 launch vehicle from the Air Force Eastern Test Range (AFETR). Payload-class satellites include a variety of spacecraft equipped with specific instruments for various scientific and technological missions. These include communications satellites like Starlink; space stations such as the ISS; scientific satellites like the Hubble; Earth observation satellites from companies like Planet Labs, Umbra, and HawkEye 360; GPS; miniature CubeSats for education and research; and military/defense satellites.

Loading next visibility...
Identifier
61005, 2024-158R
Orbit
LEO
Country
Flag of USUS
Related business
Manufacturer
SpaceX/Seattle
Mission
Operational Commercial Communications
Bus & Motor
STARLINK V2M, Unknown motor
Mass
730 kg wet, ~700 kg dry
Launch date (UTC)
2024-09-05 (1 year ago)
Launch vehicle
FALCON 9
Launch site
Air Force Eastern Test Range (AFETR)
Object type
Payload
Rocket body
Debris
Shape & HBR
Box + 2 Pan, 17.7 m
Radar Cross Section
33.884 m², Large (>1 m²)

Expand to show TLE details & history
Last TLE update: 1 day ago

TLE from 1 day ago
0 STARLINK-32284
1 61005U 24158R   26032.98573706  .00001071  00000-0  48297-4 0  9993
2 61005  53.1575 231.4600 0001190  95.0792 265.0344 15.30188075 80111
Epoch: 2026-02-01T23:39Z
TLE epoch observation values (Epoch: 2026-02-01T23:39:27.681Z)
Latitude
-0.00004°
Longitude
104.40711°
Altitude
476.221 km
Speed
7.629 km/s
True Right ascension
15h 25m 50s
True Declination
0° 00' 00"
Sunlit
Object was in daylight at epoch
Visualization orbit readout
Latitude
Unknown
Longitude
Unknown
Altitude
Unknown
Speed
Unknown
Apparent Right ascension
Unknown
Apparent Declination
Unknown
Sunlit
N/A
Visualization observer readout
Local Sidereal Time
07:48:40
Azimuth
Unknown
Elevation
Unknown
Doppler factor
Unknown
Orbital elements
Apogee altitude
476.323 km
Perigee altitude
474.692 km
Semi-major axis
6,853.645 km
Eccentricity
0.00012
Inclination
53.1575°
RAAN
231.46°
Arg. of periapsis
95.0792°
True anomaly
265.02081°
Mean anomaly
265.0344°
Eccentric anomaly
265.02761°
Mean motion
3.82526 °/min
Orbital period
94.11 mins
BSTAR
0.000048297
Loading maneuver chart data...
Computing Atmospheric mass density...
Loading historical data...
Loading historical data...
Loading historical data...
Loading historical data...
Loading historical data...
Loading historical data...
Loading historical data...

Documentation

Showing up to 5 results
|